RH
16 12 12 12 11 8 7 7 6 6 6 5 6 6 6 6 7 8 9 9 9 9 10 10 10 10 10 13 15 17 20 23 21 21 19 15 15 16 15 14 17 17 15 15 15
19 16 12 14 12 13 13 8 7 7 7 6 6 7 7 8 8 9 9 9 9 9 11 10 11 11 12 14 16 17 21 20 20 21 19 16 14 15 16 15 15 14 14 15 15
19 17 15 11 10 10 10 9 8 8 7 7 7 8 8 9 10 10 10 10 10 10 11 12 12 12 12 15 18 19 21 19 20 20 18 17 17 18 18 18 16 15 15 15 16
20 18 16 12 12 17 16 9 9 9 8 8 8 8 10 11 16 11 11 11 11 11 11 12 13 14 14 16 18 20 20 18 18 18 17 18 18 20 19 18 17 16 16 17 16
21 20 17 15 12 11 14 14 12 11 10 10 10 11 12 13 13 12 12 12 12 12 12 13 14 14 17 17 17 19 19 18 17 17 17 17 19 19 20 19 18 17 17 18 16
27 21 18 16 14 11 11 11 11 10 10 10 11 12 13 16 14 14 14 13 13 13 14 15 16 16 17 18 19 19 19 18 17 17 16 17 20 19 21 19 18 18 19 18 16
33 24 21 17 16 13 12 11 11 11 11 11 12 13 14 16 16 15 15 15 14 14 14 15 16 16 18 19 19 19 19 18 19 18 19 18 20 20 20 20 19 19 19 19 17
34 33 22 19 17 16 14 12 11 12 12 13 13 14 16 16 17 17 17 15 15 14 15 15 16 16 17 18 19 19 18 20 19 18 18 18 23 23 22 23 21 20 20 20 17
33 34 28 22 17 18 17 15 12 11 12 12 13 15 17 17 16 15 19 20 15 13 14 15 15 17 18 20 21 19 21 21 21 19 20 20 25 26 24 24 22 21 21 20 19
35 35 34 26 22 18 18 18 17 16 15 14 14 16 16 17 16 15 15 17 15 15 17 16 16 20 20 23 23 24 23 22 21 20 21 22 25 27 25 25 23 23 22 21 20
38 36 35 31 26 21 19 20 20 20 18 21 22 23 26 25 23 22 21 20 19 18 18 22 21 20 20 21 20 21 20 21 21 21 21 23 25 27 26 26 25 25 24 24 23
43 36 35 35 31 26 21 22 24 27 26 23 25 26 26 28 27 24 22 22 21 22 21 21 23 21 21 20 19 19 22 25 23 21 22 23 25 28 28 26 26 27 28 27 26
53 41 36 37 35 32 28 24 26 28 31 32 30 29 29 30 30 27 26 25 25 25 22 22 26 27 25 24 23 25 24 25 22 23 22 25 28 29 30 29 30 31 31 31 29
63 53 41 37 36 34 34 31 28 28 43 37 32 31 30 32 32 30 28 27 28 28 27 27 27 28 27 27 26 25 26 26 27 23 30 27 38 32 31 32 34 34 34 33 30
76 64 52 42 40 36 36 34 31 32 51 37 37 34 31 31 33 31 30 30 31 32 28 28 29 28 29 31 32 29 27 28 27 28 30 33 40 28 33 36 36 37 37 35 32
89 75 62 49 44 42 40 36 35 50 60 46 39 38 34 33 35 33 32 32 31 31 32 33 31 31 32 33 32 31 30 30 33 33 42 33 38 31 38 35 37 39 38 37 33
98 87 73 56 46 43 42 40 48 58 46 50 44 38 36 37 37 36 34 33 35 35 35 34 36 36 34 34 33 31 35 49 45 46 45 37 40 32 33 36 39 38 38 37 33
99 98 87 72 51 46 44 48 50 45 52 46 45 39 39 37 37 37 36 36 35 33 38 39 39 35 34 33 34 35 37 46 38 63 59 41 48 36 32 35 39 41 41 37 34
99 98 97 88 58 49 48 52 41 52 47 47 47 48 45 40 41 40 40 38 35 35 36 42 39 36 35 33 30 33 36 34 48 58 51 43 38 33 35 39 42 43 43 39 34
98 98 97 95 71 54 58 45 42 47 48 48 46 47 49 48 45 43 42 38 36 37 35 36 46 40 38 35 33 33 31 35 48 39 56 55 44 39 42 43 44 44 43 39 34
98 98 97 98 86 69 62 51 44 48 46 49 51 56 50 50 48 46 43 38 37 40 37 37 40 46 42 42 42 42 43 45 44 56 64 65 55 40 40 44 45 43 43 40 34
97 99 97 98 95 84 63 52 46 47 48 50 51 54 53 51 52 48 45 40 38 38 40 38 45 56 49 42 40 40 42 45 56 50 58 62 46 39 41 45 44 46 45 40 36
94 98 98 98 97 87 69 59 52 52 52 52 52 52 54 53 54 50 46 44 42 40 41 41 46 55 53 47 45 46 46 47 56 59 57 57 43 41 39 42 44 48 46 40 39
97 97 97 97 95 89 77 68 59 51 53 51 54 55 57 57 57 58 52 50 47 45 42 41 50 45 45 51 53 52 50 52 54 61 57 48 45 41 44 47 49 51 48 44 41
98 98 88 91 89 81 84 74 68 62 53 54 56 56 55 61 64 64 59 56 53 53 48 45 46 52 55 50 55 54 55 57 55 49 52 41 48 39 51 54 48 47 47 46 46
98 96 95 81 86 97 93 70 66 63 59 60 53 56 59 63 57 65 61 61 60 65 58 54 53 55 53 54 51 55 57 56 53 56 54 50 47 50 50 49 48 46 46 46 48
97 96 98 88 84 97 89 67 57 65 67 61 62 61 61 60 61 61 65 69 70 69 65 59 65 65 62 60 65 66 48 50 52 54 53 52 42 48 50 50 48 47 47 48 51